Weather History for KCDH - December, 2013

Change the Weather History Date:

Monday, December 2, 2013

  Actual Average Record
Temperature  
Mean Temperature 58 °F -  
Max Temperature 71 °F 60 °F 79 °F (1950)
Min Temperature 44 °F 36 °F 17 °F (1960)
Degree Days  
Heating Degree Days 6    
Growing Degree Days 8 (Base 50)    
Moisture  
Dew Point 51 °F    
Average Humidity 80    
Maximum Humidity 94    
Minimum Humidity 46    
Precipitation  
Precipitation 0.00 in - - ()
Sea Level Pressure  
Sea Level Pressure 29.78 in    
Wind  
Wind Speed 2 mph (SSW)    
Max Wind Speed 8 mph    
Max Gust Speed -    
Visibility 7 miles    
Events Fog    
Averages and records for this station are not official NWS values.
T = Trace of Precipitation, MM = Missing Value Source: NWS Daily Summary

Daily Weather History Graph

Daily Weather History Graph

Search for Another Location

Airport or City:

Trip Planner

Search our weather history database for the weather conditions in past years. The results will help you decide how hot, cold, wet, or windy it might be!

Date:

Astronomy

Dec. 02, 2013 Rise Set
Actual Time 6:58 AM CST 5:02 PM CST
Civil Twilight 6:31 AM CST 5:29 PM CST
Nautical Twilight 6:00 AM CST 6:00 PM CST
Astronomical Twilight 5:30 AM CST 6:30 PM CST
Moon 6:25 AM CST (12/2) 5:04 PM CST (12/2)
Length of Visible Light 10h 58m
Length of Day
10h 04m
Waning Crescent, 0% of the Moon is Illuminated
Dec 2
Waning Crescent
Dec 2
New
Dec 9
First Quarter
Dec 17
Full
Dec 25
Last Quarter

Hourly Weather History & Observations

Time (CST) Temp. Dew Point Humidity Pressure Visibility Wind Dir Wind Speed Gust Speed Precip Events Conditions
12:15 AM 57.2 °F 51.8 °F 82% 29.92 in 10.0 mi SSW 5.8 mph - N/A   Mostly Cloudy
12:35 AM 57.2 °F 51.8 °F 82% 29.90 in 10.0 mi SSW 6.9 mph - N/A   Mostly Cloudy
12:55 AM 57.2 °F 51.8 °F 82% 29.90 in 10.0 mi SSW 5.8 mph - N/A   Mostly Cloudy
1:15 AM 57.2 °F 51.8 °F 82% 29.89 in 10.0 mi SSW 6.9 mph - N/A   Mostly Cloudy
1:35 AM 57.2 °F 51.8 °F 82% 29.88 in 10.0 mi SSW 8.1 mph - N/A   Mostly Cloudy
1:55 AM 57.2 °F 51.8 °F 82% 29.87 in 10.0 mi SSW 5.8 mph - N/A   Overcast
2:15 AM 57.2 °F 51.8 °F 82% 29.86 in 10.0 mi SSW 6.9 mph - N/A   Overcast
2:35 AM 57.2 °F 51.8 °F 82% 29.86 in 10.0 mi SSW 4.6 mph - N/A   Mostly Cloudy
2:55 AM 57.2 °F 51.8 °F 82% 29.87 in 10.0 mi Calm Calm - N/A   Mostly Cloudy
3:15 AM 57.2 °F 51.8 °F 82% 29.86 in 10.0 mi Calm Calm - N/A   Mostly Cloudy
3:35 AM 55.4 °F 50.0 °F 82% 29.85 in 10.0 mi Calm Calm - N/A   Mostly Cloudy
3:55 AM 53.6 °F 50.0 °F 88% 29.85 in 10.0 mi Calm Calm - N/A   Mostly Cloudy
4:15 AM 53.6 °F 50.0 °F 88% 29.84 in 9.0 mi Calm Calm - N/A   Overcast
4:35 AM 53.6 °F 50.0 °F 88% 29.83 in 9.0 mi Calm Calm - N/A   Mostly Cloudy
4:55 AM 53.6 °F 50.0 °F 88% 29.83 in 8.0 mi Calm Calm - N/A   Mostly Cloudy
5:15 AM 51.8 °F 50.0 °F 94% 29.82 in 8.0 mi Calm Calm - N/A   Mostly Cloudy
5:35 AM 51.8 °F 50.0 °F 94% 29.82 in 4.0 mi Calm Calm - N/A   Overcast
5:55 AM 53.6 °F 50.0 °F 88% 29.82 in 8.0 mi Calm Calm - N/A   Overcast
6:15 AM 51.8 °F 50.0 °F 94% 29.82 in 9.0 mi Calm Calm - N/A   Overcast
6:35 AM 53.6 °F 50.0 °F 88% 29.82 in 10.0 mi Calm Calm - N/A   Overcast
6:55 AM 53.6 °F 50.0 °F 88% 29.82 in 10.0 mi Calm Calm - N/A   Overcast
7:15 AM 53.6 °F 50.0 °F 88% 29.82 in 10.0 mi Calm Calm - N/A   Overcast
7:35 AM 53.6 °F 50.0 °F 88% 29.82 in 9.0 mi Calm Calm - N/A   Overcast
7:55 AM 55.4 °F 50.0 °F 82% 29.83 in 9.0 mi Calm Calm - N/A   Overcast
8:15 AM 55.4 °F 53.6 °F 94% 29.83 in 9.0 mi Calm Calm - N/A   Overcast
8:35 AM 57.2 °F 53.6 °F 88% 29.82 in 9.0 mi Calm Calm - N/A   Overcast
8:55 AM 57.2 °F 53.6 °F 88% 29.82 in 9.0 mi Calm Calm - N/A   Overcast
9:15 AM 59.0 °F 53.6 °F 82% 29.82 in 9.0 mi Calm Calm - N/A   Overcast
9:35 AM 59.0 °F 53.6 °F 82% 29.82 in 10.0 mi Calm Calm - N/A   Overcast
9:55 AM 59.0 °F 53.6 °F 82% 29.82 in 8.0 mi Calm Calm - N/A   Overcast
10:15 AM 60.8 °F 55.4 °F 82% 29.83 in 7.0 mi Calm Calm - N/A   Overcast
10:35 AM 62.6 °F 55.4 °F 77% 29.82 in 8.0 mi Calm Calm - N/A   Overcast
10:55 AM 62.6 °F 55.4 °F 77% 29.82 in 9.0 mi Calm Calm - N/A   Overcast
11:15 AM 62.6 °F 55.4 °F 77% 29.80 in 9.0 mi Calm Calm - N/A   Overcast
11:35 AM 64.4 °F 53.6 °F 68% 29.78 in 9.0 mi Calm Calm - N/A   Mostly Cloudy
11:55 AM 64.4 °F 53.6 °F 68% 29.77 in 10.0 mi NW 3.5 mph - N/A   Mostly Cloudy
12:15 PM 64.4 °F 53.6 °F 68% 29.77 in 9.0 mi Calm Calm - N/A   Mostly Cloudy
12:35 PM 66.2 °F 53.6 °F 64% 29.75 in 9.0 mi Calm Calm - N/A   Partly Cloudy
12:55 PM 68.0 °F 53.6 °F 60% 29.74 in 10.0 mi South 4.6 mph - N/A   Clear
1:15 PM 69.8 °F 51.8 °F 53% 29.73 in 10.0 mi Calm Calm - N/A   Clear
1:35 PM 68.0 °F 50.0 °F 52% 29.73 in 10.0 mi West 3.5 mph - N/A   Partly Cloudy
1:55 PM 68.0 °F 51.8 °F 56% 29.72 in 10.0 mi SW 4.6 mph - N/A   Partly Cloudy
2:15 PM 69.8 °F 50.0 °F 49% 29.71 in 10.0 mi South 5.8 mph - N/A   Clear
2:35 PM 69.8 °F 51.8 °F 53% 29.70 in 10.0 mi SSW 4.6 mph - N/A   Partly Cloudy
2:55 PM 68.0 °F 51.8 °F 56% 29.69 in 10.0 mi Calm Calm - N/A   Partly Cloudy
3:15 PM 71.6 °F 50.0 °F 46% 29.69 in 10.0 mi Calm Calm - N/A   Mostly Cloudy
3:35 PM 68.0 °F 50.0 °F 52% 29.70 in 10.0 mi Calm Calm - N/A   Scattered Clouds
3:55 PM 66.2 °F 50.0 °F 56% 29.71 in 10.0 mi Calm Calm - N/A   Mostly Cloudy
4:15 PM 68.0 °F 51.8 °F 56% 29.70 in 9.0 mi Calm Calm - N/A   Overcast
4:35 PM 64.4 °F 51.8 °F 64% 29.71 in 9.0 mi Calm Calm - N/A   Mostly Cloudy
4:55 PM 62.6 °F 51.8 °F 68% 29.71 in 8.0 mi Calm Calm - N/A   Mostly Cloudy
5:15 PM 59.0 °F 51.8 °F 77% 29.71 in 6.0 mi Calm Calm - N/A   Haze
5:35 PM 57.2 °F 53.6 °F 88% 29.71 in 7.0 mi Calm Calm - N/A   Scattered Clouds
5:55 PM 57.2 °F 53.6 °F 88% 29.71 in 7.0 mi Calm Calm - N/A   Mostly Cloudy
6:15 PM 55.4 °F 51.8 °F 88% 29.72 in 7.0 mi Calm Calm - N/A   Overcast
6:35 PM 55.4 °F 51.8 °F 88% 29.73 in 2.5 mi Calm Calm - N/A   Mostly Cloudy
6:55 PM 55.4 °F 51.8 °F 88% 29.73 in 4.0 mi Calm Calm - N/A   Mostly Cloudy
7:15 PM 53.6 °F 50.0 °F 88% 29.73 in 1.8 mi Calm Calm - N/A   Mostly Cloudy
7:35 PM 53.6 °F 50.0 °F 88% 29.73 in 1.5 mi Calm Calm - N/A   Mostly Cloudy
7:55 PM 51.8 °F 50.0 °F 94% 29.73 in 0.2 mi Calm Calm - N/A Fog Fog
8:15 PM 51.8 °F 50.0 °F 94% 29.74 in 2.0 mi Calm Calm - N/A   Clear
8:35 PM 50.0 °F 48.2 °F 94% 29.74 in 0.5 mi Calm Calm - N/A Fog Fog
8:55 PM 50.0 °F 48.2 °F 94% 29.74 in 0.2 mi Calm Calm - N/A Fog Fog
9:15 PM 50.0 °F 48.2 °F 94% 29.74 in 0.2 mi Calm Calm - N/A Fog Fog
9:35 PM 48.2 °F 46.4 °F 93% 29.74 in 0.2 mi Calm Calm - N/A Fog Fog
9:55 PM 48.2 °F 46.4 °F 93% 29.74 in 3.0 mi North - - N/A   Clear
10:15 PM 48.2 °F 46.4 °F 93% 29.74 in 0.2 mi North - - N/A Fog Fog
10:35 PM 46.4 °F 44.6 °F 93% 29.73 in 0.2 mi Calm Calm - N/A Fog Fog
10:55 PM 46.4 °F 44.6 °F 93% 29.72 in 0.2 mi Calm Calm - N/A Fog Fog
11:15 PM 46.4 °F 44.6 °F 93% 29.72 in 0.2 mi Calm Calm - N/A Fog Fog
11:35 PM 46.4 °F 44.6 °F 93% 29.71 in 0.5 mi Calm Calm - N/A Fog Fog
11:55 PM 44.6 °F 42.8 °F 93% 29.71 in 0.5 mi Calm Calm - N/A Fog Fog